Home   Weather   Inverness   Past weeks
Flag for United Kingdom

Past Weather in Inverness, Scotland, United Kingdom — Yesterday and Last 2 Weeks

Now
63 °F

Light rain. Broken clouds.


Feels Like: 63 °F
Forecast: 78 / 62 °F
Wind: 8 mph from Southwest

Location: Inverness / Dalcross

Current Time: Jul 22, 2019 at 8:55:52 am

Latest Report: Jul 22, 2019 at 7:50 am


Visibility: 5 mi

Pressure: 29.65 "Hg

Humidity: 94%

Dew Point: 61 °F

Location of InvernessLocation

Past Weather in Inverness — Graph

°F

Inverness Temperature Yesterday

Maximum temperature yesterday: 66 °F (at 12:20 pm)
Minimum temperature yesterday: 54 °F (at 12:50 am)
Average temperature yesterday: 61 °F

High & Low Weather Summary for the Past Weeks

 TemperatureHumidityPressure
High72 °F (Jul 10, 1:20 pm)100% (Jul 8, 1:20 am)30.30 "Hg (Jul 8, 1:20 am)
Low36 °F (Jul 8, 4:20 am)53% (Jul 19, 3:20 pm)29.50 "Hg (Jul 20, 3:20 am)
Average59 °F87%29.92 "Hg
* Reported Jul 7 7:20 am — Jul 22 7:20 am, Inverness. Weather by CustomWeather, © 2019

Note: Actual official high and low records may vary slightly from our data, if they occured in-between our weather recording intervals... More about our weather records

Advertising

Inverness Weather History for the Previous 24 Hours

Scroll right to see more
 ConditionsComfort  
Time TempWeatherWind HumidityBarometerVisibility
7:20 am
Mon, Jul 22
61 °FLight rain. Broken clouds.12 mph100%29.65 "Hg5 mi
6:50 am61 °FLight rain. Broken clouds.9 mph100%29.65 "Hg3 mi
6:20 am61 °FLight rain. Partly sunny.7 mph94%29.65 "HgN/A
5:50 am61 °FLight rain. Low clouds.3 mph94%29.62 "HgN/A
5:20 am59 °FPartly sunny.No wind100%29.62 "HgN/A
4:50 am59 °FCool.1 mph100%29.62 "HgN/A
4:20 am61 °FPassing clouds.1 mph94%29.65 "HgN/A
3:50 am61 °FCool.1 mph94%29.65 "HgN/A
3:20 am61 °FCool.5 mph94%29.65 "HgN/A
2:50 am63 °FMild.5 mph88%29.65 "HgN/A
2:20 am61 °FCool.7 mph94%29.65 "HgN/A
1:50 am63 °FLight rain. Overcast.3 mph88%29.65 "HgN/A
1:20 am63 °FLight rain. Overcast.3 mph88%29.65 "HgN/A
12:50 am64 °FMild.12 mph78%29.65 "HgN/A
12:20 am63 °FMild.9 mph88%29.65 "HgN/A
11:50 pm
Sun, Jul 21
63 °FMild.14 mph88%29.68 "HgN/A
11:20 pm61 °FCool.7 mph94%29.68 "HgN/A
10:50 pm61 °FCool.3 mph88%29.68 "HgN/A
10:20 pm63 °FPartly cloudy.3 mph83%29.68 "HgN/A
9:50 pm64 °FPartly sunny.5 mph78%29.68 "HgN/A
9:20 pm63 °FMostly cloudy.6 mph83%29.68 "HgN/A
8:50 pm64 °FMostly cloudy.9 mph78%29.68 "HgN/A
8:20 pm63 °FMostly cloudy.7 mph83%29.71 "HgN/A
7:50 pm63 °FPartly sunny.10 mph77%29.71 "HgN/A
7:20 pm63 °FPartly sunny.10 mph77%29.74 "HgN/A
6:50 pm63 °FPartly sunny.7 mph83%29.74 "HgN/A
6:20 pm61 °FScattered clouds.6 mph88%29.77 "HgN/A
5:50 pm61 °FLight rain. Cloudy.7 mph83%29.77 "HgN/A
5:20 pm63 °FLight rain. Scattered clouds.8 mph77%29.80 "HgN/A
4:50 pm64 °FLight rain. Passing clouds.9 mph68%29.80 "HgN/A
4:20 pm66 °FPartly sunny.6 mph68%29.80 "HgN/A
3:50 pm66 °FPartly sunny.6 mph68%29.83 "HgN/A
3:20 pm66 °FScattered clouds.7 mph68%29.83 "HgN/A
2:50 pm66 °FPassing clouds.13 mph68%29.83 "HgN/A
1:50 pm66 °FPartly sunny.9 mph68%29.86 "HgN/A
1:20 pm64 °FScattered clouds.17 mph68%29.86 "HgN/A
12:50 pm66 °FMild.16 mph68%29.86 "HgN/A
12:20 pm66 °FMild.17 mph68%29.86 "HgN/A
11:50 am64 °FPartly sunny.18 mph68%29.86 "HgN/A
11:20 am64 °FOvercast.16 mph68%29.86 "HgN/A
10:50 am64 °FMild.12 mph73%29.86 "HgN/A
10:20 am64 °FPassing clouds.15 mph73%29.86 "HgN/A
9:50 am64 °FPartly sunny.9 mph73%29.86 "HgN/A
9:20 am61 °FPassing clouds.10 mph83%29.86 "HgN/A
8:50 am59 °FBroken clouds.10 mph88%29.86 "HgN/A
8:20 am61 °FMostly cloudy.12 mph77%29.83 "HgN/A
Weather by CustomWeather, © 2019

See weather overview